Weather Service Report


246 
ASCA44 KEWX 260120
RWRMX 

LATIN AMERICA AND CARIBBEAN REGIONAL WEATHER ROUNDUP
NATIONAL WEATHER SERVICE AUSTIN/SAN ANTONIO TX
800 PM CDT SAT MAR 25 2017

NOTE: "FAIR" INDICATED FEW OR NO CLOUDS BELOW 12,000 FEET WITH NO
SIGNIFICANT WEATHER AND/OR OBSTRUCTIONS TO VISIBILITY.

BAJA CALIFORNIA
  
CITY           SKY/WX    TMP DP  RH WIND       PRES   REMARKS
LORETO         CLEAR     77  45  31 CALM      29.88S                  
LA PAZ         CLEAR     79  46  31 CALM      29.95R                  
MEXICALI       MOSUNNY   77  37  24 W17       29.88S                  
S.J. DEL CABO  CLEAR     75  36  23 E7        29.94S                  
TIJUANA        MOSUNNY   63  50  63 W12       30.05S                  

NORTHWESTERN MEXICO
  
CITY           SKY/WX    TMP DP  RH WIND       PRES   REMARKS
CULIACAN       CLEAR     81  54  39 SW6       29.89S                  
DURANGO        CLEAR     79  12   8 SW17      30.10R                  
GUAYMAS        CLEAR     75  61  60 S10       29.82S                  
HERMOSILLO     CLEAR     88  39  18 W12       29.87R                  
CD. JUAREZ     PTCLDY    79  25  13 S9        29.79F                  
LOS MOCHIS     CLEAR     77  54  44 W8        29.90F                  
OBREGON        CLEAR     81  48  32 W5        29.85S                  

NORTHEASTERN MEXICO
  
CITY           SKY/WX    TMP DP  RH WIND       PRES   REMARKS
CHIHUAHUA      CLEAR     81  21  11 E15       29.90F                  
MATAMOROS      CLEAR     77  68  73 SE10      29.90S                  
MONCLOVA       CLEAR     84  36  17 N9        29.89F                  
MONTERREY      CLEAR     82  50  32 E5        29.99R                  
NUEVO LAREDO   CLEAR     86  59  39 E7        29.87F                  
PIEDRAS NEGRAS   N/A    N/A N/A N/A MISG        N/A                   
REYNOSA        CLEAR     79  63  57 E12       29.88R                  
SALTILLO       CLEAR     72  45  37 N14       30.10S                  
TORREON        CLEAR     86   5   4 E6        29.92F                  
CD. VICTORIA   CLEAR     86  52  30 E7        29.89R                  

WESTERN MEXICO
  
CITY           SKY/WX    TMP DP  RH WIND       PRES   REMARKS
AGUASCALIENTES MOCLDY    75  32  20 SW18      30.12R                  
COLIMA         PTCLDY    75  66  73 CALM      29.98R                  
DEL BAJIO      MOCLDY    73  43  33 SE7       30.16R                  
GUADALAJARA    MOCLDY    79  34  19 SW6       30.06S                  
MANZANILLO     CLEAR     81  70  69 W9        29.89R                  
MAZATLAN       CLEAR     77  61  57 W6        29.95R                  
P. VALLARTA    PTCLDY    77  70  78 SW8       29.92R                  
URUAPAN        CLEAR     73  57  56 S9        30.12R                  
ZACATECAS      CLEAR     75  18  11 S7        30.15S                  

CENTRAL MEXICO
  
CITY           SKY/WX    TMP DP  RH WIND       PRES   REMARKS
CUERNAVACA     MOCLDY    82  45  26 W9        29.98R                  
MEXICO CITY    TSTM      59  48  67 W21G32    30.31R                  
MORELIA        MOCLDY    70  45  40 W13       30.15F                  
POZA RICA      CLEAR     77  70  78 E7        29.99R                  
PUEBLA         CLOUDY    61  43  51 NE13      30.26R                  
QUERETARO      MOCLDY    73  37  27 NE17      30.19R                  
S. LUIS POTOSI CLEAR     73  37  27 E17       30.14R                  
TAMPICO        CLEAR     75  70  83 SE12      29.92R                  
TOLUCA         MOCLDY    52  45  76 SW8       30.36F THUNDER          

SOUTHERN MEXICO
  
CITY           SKY/WX    TMP DP  RH WIND       PRES   REMARKS
ACAPULCO       PTCLDY    82  75  78 W6        29.85R                  
B. DE HUATULCO PTCLDY    79  68  69 SW9       29.93                   
OAXACA         PTCLDY    79  46  31 E16       30.09R                  
P. ESCONDIDO   PTCLDY    81  73  78 W5        29.97R                  
VERACRUZ       PTCLDY    79  72  78 NE13      29.92R                  
ZIHUATANEJO    MOCLDY    82  73  74 W12       29.88R                  

YUCATAN PENINSULA
  
CITY           SKY/WX    TMP DP  RH WIND       PRES   REMARKS
CAMPECHE       PTCLDY    79  72  78 N12G23    29.89R                  
CANCUN         PTCLDY    77  70  78 E8        30.00R                  
CHETUMAL       PTCLDY    79  68  69 SE12      29.97R                  
CD. DEL CARMEN CLEAR     79  72  78 NE9       29.89R                  
COZUMEL        CLEAR     75  68  78 SE5       29.99F                  
MERIDA         MOCLDY    82  66  57 NE8       29.92R                  
MINATITLAN     PTCLDY    79  68  69 N12       29.88R                  
TAPACHULA      PTCLDY    81  72  74 CALM      29.86R                  
TUX. GUTIERREZ PTCLDY    82  59  44 W24       29.90R                  
VILLAHERMOSA   CLEAR     77  63  61 N6        29.90R                  

CENTRAL AMERICA
  
CITY           SKY/WX    TMP DP  RH WIND       PRES   REMARKS
BELIZE CITY    PTCLDY    79  70  73 E5        29.96R                  
MANAGUA          N/A     84  66  54 SE12      29.83R                  

CARIBBEAN
  
CITY           SKY/WX    TMP DP  RH WIND       PRES   REMARKS
ARUBA          PTCLDY    81  75  83 NE8       29.89R                  
KINGSTON       PTCLDY    81  70  69 N7        29.92S                  
NASSAU         MOCLDY    73  66  78 NE9       30.13R                  
SAN JUAN       PTCLDY    79  73  83 S5        29.92R                  
SANTO DOMINGO  MOCLDY    79  70  73 NE5       29.92R                  
ST. CROIX      MOCLDY    79  72  78 SE9       29.96                   
ST. KITTS      MOCLDY    79  72  78 E14       29.94S                  
ST. MAARTEN    MOCLDY    79  72  78 E8        29.94S                  
ST. THOMAS     MOCLDY    79  73  83 SE12      29.94                   

$$

  

Return to Home page


Western Regional Climate Center, wrcc@dri.edu